Time,TemperatureF,DewpointF,PressureIn,WindDirection,WindDirectionDegrees,WindSpeedMPH,WindSpeedGustMPH,Humidity,HourlyPrecipIn,Conditions,Clouds,dailyrainin,SoftwareType,DateUTC
2013-05-07 00:00:00,54.0,37.2,30.06,East,90,0.0,4.7,53,0.00,,CLR,0.00,VWS V14.01,2013-05-07 04:00:00,
2013-05-07 00:01:00,54.0,37.2,30.06,East,90,0.0,4.7,53,0.00,,CLR,0.00,VWS V14.01,2013-05-07 04:01:00,
2013-05-07 00:02:00,54.0,37.2,30.06,East,90,0.0,4.7,53,0.00,,CLR,0.00,VWS V14.01,2013-05-07 04:02:00,
2013-05-07 00:03:00,54.0,37.2,30.06,East,90,0.0,4.7,53,0.00,,CLR,0.00,VWS V14.01,2013-05-07 04:03:00,
2013-05-07 00:08:00,54.3,38.5,30.06,East,90,0.0,0.0,55,0.00,,CLR,0.00,VWS V14.01,2013-05-07 04:08:00,
2013-05-07 00:13:00,54.5,38.7,30.06,East,90,0.0,0.0,55,0.00,,CLR,0.00,VWS V14.01,2013-05-07 04:13:00,
2013-05-07 00:16:00,54.3,38.5,30.06,ENE,68,2.0,2.0,55,0.00,,CLR,0.00,VWS V14.01,2013-05-07 04:16:00,
2013-05-07 00:21:00,54.0,39.1,30.06,NE,45,3.4,3.4,57,0.00,,CLR,0.00,VWS V14.01,2013-05-07 04:21:00,
2013-05-07 00:26:00,53.8,39.4,30.06,NE,45,3.4,3.4,58,0.00,,CLR,0.00,VWS V14.01,2013-05-07 04:26:00,
2013-05-07 00:31:00,54.0,39.1,30.06,NE,45,3.4,3.4,57,0.00,,CLR,0.00,VWS V14.01,2013-05-07 04:31:00,
2013-05-07 00:36:00,54.0,39.1,30.06,NE,45,3.4,3.4,57,0.00,,CLR,0.00,VWS V14.01,2013-05-07 04:36:00,
2013-05-07 00:41:00,54.1,40.1,30.06,NE,45,3.4,3.4,59,0.00,,CLR,0.00,VWS V14.01,2013-05-07 04:41:00,
2013-05-07 00:46:00,54.3,40.3,30.06,ENE,68,2.0,3.4,59,0.00,,CLR,0.00,VWS V14.01,2013-05-07 04:46:00,
2013-05-07 00:51:00,54.5,40.0,30.09,SSE,158,2.5,3.4,58,0.00,,CLR,0.00,VWS V14.01,2013-05-07 04:51:00,
2013-05-07 00:56:00,54.9,39.5,30.09,ESE,112,2.0,3.4,56,0.00,,CLR,0.00,VWS V14.01,2013-05-07 04:56:00,
2013-05-07 01:00:00,54.9,39.5,30.06,ESE,112,2.0,3.4,56,0.00,,CLR,0.00,VWS V14.01,2013-05-07 05:00:00,
2013-05-07 01:01:00,54.9,39.5,30.09,ESE,112,2.0,3.4,56,0.00,,CLR,0.00,VWS V14.01,2013-05-07 05:01:00,
2013-05-07 01:06:00,55.0,39.2,30.06,ESE,112,1.6,2.0,55,0.00,,CLR,0.00,VWS V14.01,2013-05-07 05:06:00,
2013-05-07 01:11:00,55.6,39.2,30.06,ESE,112,1.6,2.0,54,0.00,,CLR,0.00,VWS V14.01,2013-05-07 05:11:00,
2013-05-07 01:16:00,55.0,38.7,30.06,ENE,68,2.9,2.9,54,0.00,,CLR,0.00,VWS V14.01,2013-05-07 05:16:00,
2013-05-07 01:22:00,54.9,39.5,30.06,ENE,68,2.9,2.9,56,0.00,,CLR,0.00,VWS V14.01,2013-05-07 05:22:00,
2013-05-07 01:27:00,54.7,40.2,30.06,ENE,68,2.9,2.9,58,0.00,,CLR,0.00,VWS V14.01,2013-05-07 05:27:00,
2013-05-07 01:32:00,54.3,38.5,30.06,ENE,68,2.7,2.9,55,0.00,,CLR,0.00,VWS V14.01,2013-05-07 05:32:00,
2013-05-07 01:37:00,54.0,38.2,30.06,ENE,68,2.7,2.9,55,0.00,,CLR,0.00,VWS V14.01,2013-05-07 05:37:00,
2013-05-07 01:42:00,53.8,38.5,30.06,ENE,68,2.5,2.9,56,0.00,,CLR,0.00,VWS V14.01,2013-05-07 05:42:00,
2013-05-07 01:47:00,53.4,37.7,30.09,ENE,68,2.5,2.9,55,0.00,,CLR,0.00,VWS V14.01,2013-05-07 05:47:00,
2013-05-07 01:52:00,53.4,39.0,30.09,ENE,68,2.9,2.9,58,0.00,,CLR,0.00,VWS V14.01,2013-05-07 05:52:00,
2013-05-07 01:57:00,53.2,38.0,30.09,ENE,68,2.9,2.9,56,0.00,,CLR,0.00,VWS V14.01,2013-05-07 05:57:00,
2013-05-07 02:00:00,52.9,37.2,30.09,SSE,158,1.3,2.9,55,0.00,,CLR,0.00,VWS V14.01,2013-05-07 06:00:00,
2013-05-07 02:02:00,52.9,37.2,30.09,SSE,158,1.3,2.9,55,0.00,,CLR,0.00,VWS V14.01,2013-05-07 06:02:00,
2013-05-07 02:07:00,52.9,37.6,30.09,SSE,158,1.3,1.3,56,0.00,,CLR,0.00,VWS V14.01,2013-05-07 06:07:00,
2013-05-07 02:12:00,52.2,37.0,30.09,SE,135,0.0,1.3,56,0.00,,CLR,0.00,VWS V14.01,2013-05-07 06:12:00,
2013-05-07 02:17:00,51.4,36.7,30.09,SE,135,0.0,1.3,57,0.00,,CLR,0.00,VWS V14.01,2013-05-07 06:17:00,
2013-05-07 02:22:00,51.3,37.4,30.09,SE,135,0.0,1.3,59,0.00,,CLR,0.00,VWS V14.01,2013-05-07 06:22:00,
2013-05-07 02:27:00,51.3,38.7,30.09,ENE,68,2.9,2.9,62,0.00,,CLR,0.00,VWS V14.01,2013-05-07 06:27:00,
2013-05-07 02:32:00,51.6,41.0,30.09,ENE,68,2.9,2.9,67,0.00,,CLR,0.00,VWS V14.01,2013-05-07 06:32:00,
2013-05-07 02:37:00,51.4,39.7,30.06,ESE,112,2.0,2.9,64,0.00,,CLR,0.00,VWS V14.01,2013-05-07 06:37:00,
2013-05-07 02:42:00,51.4,38.5,30.06,ESE,112,2.0,2.9,61,0.00,,CLR,0.00,VWS V14.01,2013-05-07 06:42:00,
2013-05-07 02:47:00,51.1,38.1,30.09,ESE,112,2.0,2.9,61,0.00,,CLR,0.00,VWS V14.01,2013-05-07 06:47:00,
2013-05-07 02:52:00,50.9,37.5,30.09,ESE,112,2.0,2.9,60,0.00,,CLR,0.00,VWS V14.01,2013-05-07 06:52:00,
2013-05-07 02:57:00,50.5,36.8,30.09,ESE,112,2.0,2.9,59,0.00,,CLR,0.00,VWS V14.01,2013-05-07 06:57:00,
2013-05-07 03:00:00,49.6,36.3,30.06,ESE,112,2.0,2.9,60,0.00,,CLR,0.00,VWS V14.01,2013-05-07 07:00:00,
2013-05-07 03:02:00,49.8,36.5,30.06,ESE,112,2.0,2.9,60,0.00,,CLR,0.00,VWS V14.01,2013-05-07 07:02:00,
2013-05-07 03:07:00,48.9,36.1,30.06,East,90,0.0,2.0,61,0.00,,CLR,0.00,VWS V14.01,2013-05-07 07:07:00,
2013-05-07 03:12:00,48.6,36.2,30.06,East,90,0.0,2.0,62,0.00,,CLR,0.00,VWS V14.01,2013-05-07 07:12:00,
2013-05-07 03:17:00,48.4,36.4,30.06,East,90,0.0,2.0,63,0.00,,CLR,0.00,VWS V14.01,2013-05-07 07:17:00,
2013-05-07 03:22:00,48.7,37.5,30.06,East,90,0.0,2.0,65,0.00,,CLR,0.00,VWS V14.01,2013-05-07 07:22:00,
2013-05-07 03:27:00,49.1,39.4,30.06,East,90,2.5,2.5,69,0.00,,CLR,0.00,VWS V14.01,2013-05-07 07:27:00,
2013-05-07 03:32:00,49.3,41.0,30.09,East,90,2.5,2.5,73,0.00,,CLR,0.00,VWS V14.01,2013-05-07 07:32:00,
2013-05-07 03:37:00,48.7,39.0,30.09,East,90,2.5,2.5,69,0.00,,CLR,0.00,VWS V14.01,2013-05-07 07:37:00,
2013-05-07 03:42:00,49.1,40.5,30.09,East,90,2.5,2.5,72,0.00,,CLR,0.00,VWS V14.01,2013-05-07 07:42:00,
2013-05-07 03:47:00,48.7,38.3,30.09,SE,135,2.2,2.5,67,0.00,,CLR,0.00,VWS V14.01,2013-05-07 07:47:00,
2013-05-07 03:52:00,48.4,37.6,30.09,SE,135,2.2,2.5,66,0.00,,CLR,0.00,VWS V14.01,2013-05-07 07:52:00,
2013-05-07 03:57:00,48.0,38.0,30.09,SE,135,2.2,2.5,68,0.00,,CLR,0.00,VWS V14.01,2013-05-07 07:57:00,
2013-05-07 04:02:00,47.8,37.8,30.09,SE,135,2.2,2.5,68,0.00,,CLR,0.00,VWS V14.01,2013-05-07 08:02:00,
2013-05-07 04:07:00,47.7,38.4,30.09,ENE,68,2.0,2.5,70,0.00,,CLR,0.00,VWS V14.01,2013-05-07 08:07:00,
2013-05-07 04:12:00,47.5,38.6,30.09,ENE,68,2.0,2.5,71,0.00,,CLR,0.00,VWS V14.01,2013-05-07 08:12:00,
2013-05-07 04:17:00,47.7,37.6,30.09,ESE,112,1.6,2.5,68,0.00,,CLR,0.00,VWS V14.01,2013-05-07 08:17:00,
2013-05-07 04:22:00,48.0,38.0,30.09,ESE,112,1.6,2.5,68,0.00,,CLR,0.00,VWS V14.01,2013-05-07 08:22:00,
2013-05-07 04:27:00,48.4,37.9,30.09,ESE,112,1.6,2.5,67,0.00,,CLR,0.00,VWS V14.01,2013-05-07 08:27:00,
2013-05-07 04:32:00,48.4,38.3,30.09,ESE,112,1.6,2.5,68,0.00,,CLR,0.00,VWS V14.01,2013-05-07 08:32:00,
2013-05-07 04:37:00,48.4,38.3,30.09,ESE,112,1.6,2.5,68,0.00,,CLR,0.00,VWS V14.01,2013-05-07 08:37:00,
2013-05-07 04:42:00,48.4,38.3,30.09,ESE,112,1.6,2.5,68,0.00,,CLR,0.00,VWS V14.01,2013-05-07 08:42:00,
2013-05-07 04:47:00,48.4,38.3,30.09,ESE,112,1.6,2.5,68,0.00,,CLR,0.00,VWS V14.01,2013-05-07 08:47:00,
2013-05-07 04:52:00,47.7,37.3,30.09,ESE,112,1.6,2.5,67,0.00,,CLR,0.00,VWS V14.01,2013-05-07 08:52:00,
2013-05-07 04:57:00,47.7,36.9,30.09,ESE,112,1.6,2.5,66,0.00,,CLR,0.00,VWS V14.01,2013-05-07 08:57:00,
2013-05-07 05:00:00,47.7,36.9,30.09,ESE,112,1.6,2.5,66,0.00,,CLR,0.00,VWS V14.01,2013-05-07 09:00:00,
2013-05-07 05:02:00,47.7,36.9,30.09,ESE,112,1.6,2.5,66,0.00,,CLR,0.00,VWS V14.01,2013-05-07 09:02:00,
2013-05-07 05:07:00,47.7,36.5,30.09,ESE,112,1.6,1.6,65,0.00,,CLR,0.00,VWS V14.01,2013-05-07 09:07:00,
2013-05-07 05:12:00,48.0,36.4,30.09,ENE,68,1.3,1.6,64,0.00,,CLR,0.00,VWS V14.01,2013-05-07 09:12:00,
2013-05-07 05:17:00,48.0,36.0,30.09,ENE,68,2.5,2.5,63,0.00,,CLR,0.00,VWS V14.01,2013-05-07 09:17:00,
2013-05-07 05:22:00,47.8,35.9,30.09,ENE,68,2.5,2.5,63,0.00,,CLR,0.00,VWS V14.01,2013-05-07 09:22:00,
2013-05-07 05:27:00,47.8,35.5,30.09,ENE,68,2.2,2.5,62,0.00,,CLR,0.00,VWS V14.01,2013-05-07 09:27:00,
2013-05-07 05:32:00,47.8,35.5,30.09,ENE,68,2.2,2.5,62,0.00,,CLR,0.00,VWS V14.01,2013-05-07 09:32:00,
2013-05-07 05:37:00,47.7,34.9,30.09,ENE,68,2.2,2.5,61,0.00,,CLR,0.00,VWS V14.01,2013-05-07 09:37:00,
2013-05-07 05:43:00,47.8,35.1,30.09,ENE,68,2.2,2.5,61,0.00,,CLR,0.00,VWS V14.01,2013-05-07 09:43:00,
2013-05-07 05:48:00,47.8,35.1,30.09,ENE,68,2.2,2.5,61,0.00,,CLR,0.00,VWS V14.01,2013-05-07 09:48:00,
2013-05-07 05:53:00,47.8,34.6,30.09,ENE,68,2.2,2.5,60,0.00,,CLR,0.00,VWS V14.01,2013-05-07 09:53:00,
2013-05-07 05:58:00,48.6,34.9,30.09,North,0,2.7,2.7,59,0.00,,CLR,0.00,VWS V14.01,2013-05-07 09:58:00,
2013-05-07 06:00:00,48.7,35.1,30.09,North,0,2.7,2.7,59,0.00,,CLR,0.00,VWS V14.01,2013-05-07 10:00:00,
2013-05-07 06:03:00,48.7,35.1,30.09,North,0,2.7,2.7,59,0.00,,CLR,0.00,VWS V14.01,2013-05-07 10:03:00,
2013-05-07 06:08:00,48.6,35.3,30.09,North,0,2.7,2.7,60,0.00,,CLR,0.00,VWS V14.01,2013-05-07 10:08:00,
2013-05-07 06:13:00,48.4,36.0,30.09,NNW,338,3.1,3.1,62,0.00,,CLR,0.00,VWS V14.01,2013-05-07 10:13:00,
2013-05-07 06:18:00,48.4,36.0,30.09,North,0,1.6,3.1,62,0.00,,CLR,0.00,VWS V14.01,2013-05-07 10:18:00,
2013-05-07 06:23:00,47.8,35.9,30.09,North,0,1.6,3.1,63,0.00,,CLR,0.00,VWS V14.01,2013-05-07 10:23:00,
2013-05-07 06:28:00,47.3,35.8,30.09,NNE,22,0.0,3.1,64,0.00,,CLR,0.00,VWS V14.01,2013-05-07 10:28:00,
2013-05-07 06:33:00,47.8,37.4,30.09,NNE,22,3.1,3.1,67,0.00,,CLR,0.00,VWS V14.01,2013-05-07 10:33:00,
2013-05-07 06:38:00,48.4,38.3,30.09,NNE,22,3.1,3.1,68,0.00,,CLR,0.00,VWS V14.01,2013-05-07 10:38:00,
2013-05-07 06:43:00,48.9,38.5,30.09,NNE,22,1.6,3.1,67,0.00,,CLR,0.00,VWS V14.01,2013-05-07 10:43:00,
2013-05-07 06:48:00,49.3,38.4,30.09,NNW,338,2.2,3.1,66,0.00,,CLR,0.00,VWS V14.01,2013-05-07 10:48:00,
2013-05-07 06:53:00,50.0,38.3,30.09,NNE,22,3.1,3.1,64,0.00,,CLR,0.00,VWS V14.01,2013-05-07 10:53:00,
2013-05-07 06:58:00,50.5,38.4,30.09,North,0,2.9,3.1,63,0.00,,CLR,0.00,VWS V14.01,2013-05-07 10:58:00,
2013-05-07 07:03:00,51.3,38.7,30.09,NNE,22,2.5,3.1,62,0.00,,CLR,0.00,VWS V14.01,2013-05-07 11:03:00,
2013-05-07 07:08:00,52.2,39.5,30.09,ENE,68,1.1,3.1,62,0.00,,CLR,0.00,VWS V14.01,2013-05-07 11:08:00,
2013-05-07 07:13:00,53.4,40.7,30.09,ENE,68,1.1,3.1,62,0.00,,CLR,0.00,VWS V14.01,2013-05-07 11:13:00,
2013-05-07 07:18:00,54.9,42.1,30.12,NE,45,0.0,3.1,62,0.00,,CLR,0.00,VWS V14.01,2013-05-07 11:18:00,
2013-05-07 07:23:00,55.9,42.7,30.12,ENE,68,0.9,3.1,61,0.00,,CLR,0.00,VWS V14.01,2013-05-07 11:23:00,
2013-05-07 07:28:00,57.2,42.1,30.12,ENE,68,0.9,3.1,57,0.00,,CLR,0.00,VWS V14.01,2013-05-07 11:28:00,
2013-05-07 07:33:00,58.1,42.0,30.12,ENE,68,0.9,3.1,55,0.00,,CLR,0.00,VWS V14.01,2013-05-07 11:33:00,
2013-05-07 07:38:00,59.2,42.1,30.12,ENE,68,0.9,3.1,53,0.00,,CLR,0.00,VWS V14.01,2013-05-07 11:38:00,
2013-05-07 07:43:00,59.7,41.1,30.12,ENE,68,0.9,3.1,50,0.00,,CLR,0.00,VWS V14.01,2013-05-07 11:43:00,
2013-05-07 07:48:00,60.1,40.3,30.12,ENE,68,0.9,3.1,48,0.00,,CLR,0.00,VWS V14.01,2013-05-07 11:48:00,
2013-05-07 07:53:00,60.6,39.2,30.12,NE,45,2.5,3.1,45,0.00,,CLR,0.00,VWS V14.01,2013-05-07 11:53:00,
2013-05-07 07:58:00,61.3,39.3,30.12,NE,45,2.5,3.1,44,0.00,,CLR,0.00,VWS V14.01,2013-05-07 11:58:00,
2013-05-07 08:00:00,61.9,39.2,30.12,NE,45,2.5,3.1,43,0.00,,CLR,0.00,VWS V14.01,2013-05-07 12:00:00,
2013-05-07 08:03:00,61.9,39.2,30.12,NE,45,2.5,3.1,43,0.00,,CLR,0.00,VWS V14.01,2013-05-07 12:03:00,
2013-05-07 08:08:00,62.2,38.3,30.12,NE,45,2.5,2.5,41,0.00,,CLR,0.00,VWS V14.01,2013-05-07 12:08:00,
2013-05-07 08:13:00,63.0,38.3,30.12,NE,45,2.5,2.5,40,0.00,,CLR,0.00,VWS V14.01,2013-05-07 12:13:00,
2013-05-07 08:18:00,63.1,37.1,30.12,ENE,68,3.4,3.4,38,0.00,,CLR,0.00,VWS V14.01,2013-05-07 12:18:00,
2013-05-07 08:23:00,63.5,37.5,30.12,ENE,68,3.4,3.4,38,0.00,,CLR,0.00,VWS V14.01,2013-05-07 12:23:00,
2013-05-07 08:28:00,63.5,35.4,30.12,East,90,3.8,3.8,35,0.00,,CLR,0.00,VWS V14.01,2013-05-07 12:28:00,
2013-05-07 08:33:00,64.0,35.9,30.12,East,90,3.8,3.8,35,0.00,,CLR,0.00,VWS V14.01,2013-05-07 12:33:00,
2013-05-07 08:38:00,64.8,37.2,30.12,East,90,2.7,3.8,36,0.00,,CLR,0.00,VWS V14.01,2013-05-07 12:38:00,
2013-05-07 08:43:00,65.1,37.5,30.12,East,90,2.7,3.8,36,0.00,,CLR,0.00,VWS V14.01,2013-05-07 12:43:00,
2013-05-07 08:48:00,65.7,38.0,30.12,East,90,2.7,3.8,36,0.00,,CLR,0.00,VWS V14.01,2013-05-07 12:48:00,
2013-05-07 08:54:00,65.7,37.3,30.12,ENE,68,2.7,4.0,35,0.00,,CLR,0.00,VWS V14.01,2013-05-07 12:54:00,
2013-05-07 08:59:00,66.4,38.6,30.12,East,90,2.9,4.0,36,0.00,,CLR,0.00,VWS V14.01,2013-05-07 12:59:00,
2013-05-07 09:00:00,66.9,38.4,30.12,East,90,2.9,4.0,35,0.00,,CLR,0.00,VWS V14.01,2013-05-07 13:00:00,
2013-05-07 09:04:00,66.9,38.4,30.12,ENE,68,4.0,4.0,35,0.00,,CLR,0.00,VWS V14.01,2013-05-07 13:04:00,
2013-05-07 09:09:00,67.5,38.9,30.12,SSE,158,3.1,4.0,35,0.00,,CLR,0.00,VWS V14.01,2013-05-07 13:09:00,
2013-05-07 09:14:00,68.7,40.0,30.12,ESE,112,2.2,4.0,35,0.00,,CLR,0.00,VWS V14.01,2013-05-07 13:14:00,
2013-05-07 09:19:00,68.9,39.4,30.15,East,90,2.7,4.0,34,0.00,,CLR,0.00,VWS V14.01,2013-05-07 13:19:00,
2013-05-07 09:24:00,70.5,41.6,30.15,SSE,158,2.2,4.0,35,0.00,,CLR,0.00,VWS V14.01,2013-05-07 13:24:00,
2013-05-07 09:29:00,71.2,40.7,30.15,SSE,158,2.9,4.0,33,0.00,,CLR,0.00,VWS V14.01,2013-05-07 13:29:00,
2013-05-07 09:34:00,72.3,41.6,30.12,NE,45,3.1,4.0,33,0.00,,CLR,0.00,VWS V14.01,2013-05-07 13:34:00,
2013-05-07 09:39:00,72.7,42.0,30.12,NE,45,2.9,4.0,33,0.00,,CLR,0.00,VWS V14.01,2013-05-07 13:39:00,
2013-05-07 09:44:00,73.0,41.5,30.12,ENE,68,3.1,4.0,32,0.00,,CLR,0.00,VWS V14.01,2013-05-07 13:44:00,
2013-05-07 09:49:00,73.8,42.1,30.15,SE,135,2.7,4.0,32,0.00,,CLR,0.00,VWS V14.01,2013-05-07 13:49:00,
2013-05-07 09:54:00,74.7,42.9,30.15,East,90,1.3,4.0,32,0.00,,CLR,0.00,VWS V14.01,2013-05-07 13:54:00,
2013-05-07 09:59:00,75.6,42.8,30.15,ENE,68,0.9,4.0,31,0.00,,CLR,0.00,VWS V14.01,2013-05-07 13:59:00,
2013-05-07 10:04:00,75.9,43.1,30.12,ENE,68,2.5,4.0,31,0.00,,CLR,0.00,VWS V14.01,2013-05-07 14:04:00,
2013-05-07 10:09:00,76.6,43.8,30.12,SW,225,2.0,4.0,31,0.00,,CLR,0.00,VWS V14.01,2013-05-07 14:09:00,
2013-05-07 10:14:00,77.2,43.4,30.12,SSE,158,0.9,4.0,30,0.00,,CLR,0.00,VWS V14.01,2013-05-07 14:14:00,
2013-05-07 10:19:00,77.7,44.7,30.12,SE,135,1.3,4.0,31,0.00,,CLR,0.00,VWS V14.01,2013-05-07 14:19:00,
2013-05-07 10:24:00,77.5,43.7,30.12,East,90,1.1,4.0,30,0.00,,CLR,0.00,VWS V14.01,2013-05-07 14:24:00,
2013-05-07 10:29:00,78.4,45.3,30.12,NE,45,3.1,4.0,31,0.00,,CLR,0.00,VWS V14.01,2013-05-07 14:29:00,
2013-05-07 10:34:00,78.1,45.0,30.12,NW,315,2.5,4.0,31,0.00,,CLR,0.00,VWS V14.01,2013-05-07 14:34:00,
2013-05-07 10:39:00,78.3,45.2,30.12,NNW,338,2.7,4.0,31,0.00,,CLR,0.00,VWS V14.01,2013-05-07 14:39:00,
2013-05-07 10:44:00,79.2,45.1,30.12,SE,135,3.6,4.0,30,0.00,,CLR,0.00,VWS V14.01,2013-05-07 14:44:00,
2013-05-07 10:49:00,79.2,45.1,30.12,East,90,3.4,4.0,30,0.00,,CLR,0.00,VWS V14.01,2013-05-07 14:49:00,
2013-05-07 10:54:00,78.4,45.3,30.12,ENE,68,2.7,5.6,31,0.00,,CLR,0.00,VWS V14.01,2013-05-07 14:54:00,
2013-05-07 10:59:00,78.4,45.3,30.12,South,180,2.9,5.6,31,0.00,,CLR,0.00,VWS V14.01,2013-05-07 14:59:00,
2013-05-07 11:00:00,78.6,45.5,30.12,East,90,4.7,6.9,31,0.00,,CLR,0.00,VWS V14.01,2013-05-07 15:00:00,
2013-05-07 11:04:00,78.6,45.5,30.12,East,90,4.7,4.7,31,0.00,,CLR,0.00,VWS V14.01,2013-05-07 15:04:00,
2013-05-07 11:09:00,78.4,45.3,30.12,ENE,68,2.7,6.0,31,0.00,,CLR,0.00,VWS V14.01,2013-05-07 15:09:00,
2013-05-07 11:14:00,78.4,45.3,30.12,ENE,68,5.8,7.4,31,0.00,,CLR,0.00,VWS V14.01,2013-05-07 15:14:00,
2013-05-07 11:19:00,77.0,44.1,30.09,East,90,3.1,8.7,31,0.00,,CLR,0.00,VWS V14.01,2013-05-07 15:19:00,
2013-05-07 11:24:00,77.4,45.2,30.09,NE,45,5.4,8.7,32,0.00,,CLR,0.00,VWS V14.01,2013-05-07 15:24:00,
2013-05-07 11:29:00,77.2,44.2,30.09,ESE,112,7.4,9.0,31,0.00,,CLR,0.00,VWS V14.01,2013-05-07 15:29:00,
2013-05-07 11:34:00,77.0,44.1,30.09,NNE,22,8.1,9.0,31,0.00,,CLR,0.00,VWS V14.01,2013-05-07 15:34:00,
2013-05-07 11:39:00,77.2,44.2,30.09,East,90,4.3,9.0,31,0.00,,CLR,0.00,VWS V14.01,2013-05-07 15:39:00,
2013-05-07 11:44:00,76.5,43.6,30.09,NNE,22,5.8,9.8,31,0.00,,CLR,0.00,VWS V14.01,2013-05-07 15:44:00,
2013-05-07 11:49:00,77.0,44.1,30.09,ESE,112,4.9,9.8,31,0.00,,CLR,0.00,VWS V14.01,2013-05-07 15:49:00,
2013-05-07 11:54:00,77.4,44.4,30.09,ESE,112,3.6,9.8,31,0.00,,CLR,0.00,VWS V14.01,2013-05-07 15:54:00,
2013-05-07 11:59:00,77.5,44.5,30.09,East,90,6.0,9.8,31,0.00,,CLR,0.00,VWS V14.01,2013-05-07 15:59:00,
2013-05-07 12:00:00,77.7,44.7,30.09,ENE,68,6.0,9.8,31,0.00,,CLR,0.00,VWS V14.01,2013-05-07 16:00:00,
2013-05-07 12:04:00,77.5,44.5,30.09,ENE,68,6.3,9.0,31,0.00,,CLR,0.00,VWS V14.01,2013-05-07 16:04:00,
2013-05-07 12:09:00,77.9,44.0,30.09,ESE,112,3.6,13.0,30,0.00,,CLR,0.00,VWS V14.01,2013-05-07 16:09:00,
2013-05-07 12:14:00,77.0,43.2,30.09,East,90,9.6,13.0,30,0.00,,CLR,0.00,VWS V14.01,2013-05-07 16:14:00,
2013-05-07 12:19:00,77.2,45.1,30.09,ENE,68,9.6,13.0,32,0.00,,CLR,0.00,VWS V14.01,2013-05-07 16:19:00,
2013-05-07 12:24:00,77.7,43.8,30.09,ENE,68,5.6,13.0,30,0.00,,CLR,0.00,VWS V14.01,2013-05-07 16:24:00,
2013-05-07 12:30:00,77.0,43.2,30.09,ENE,68,7.8,13.0,30,0.00,,CLR,0.00,VWS V14.01,2013-05-07 16:30:00,
2013-05-07 12:35:00,77.4,43.5,30.06,ENE,68,5.6,13.0,30,0.00,,CLR,0.00,VWS V14.01,2013-05-07 16:35:00,
2013-05-07 12:40:00,78.6,44.6,30.06,ENE,68,4.0,13.0,30,0.00,,CLR,0.00,VWS V14.01,2013-05-07 16:40:00,
2013-05-07 12:45:00,79.2,45.1,30.06,NE,45,6.5,13.0,30,0.00,,CLR,0.00,VWS V14.01,2013-05-07 16:45:00,
2013-05-07 12:50:00,78.6,45.5,30.09,ESE,112,8.7,13.0,31,0.00,,CLR,0.00,VWS V14.01,2013-05-07 16:50:00,
2013-05-07 12:55:00,79.2,44.2,30.09,ENE,68,2.5,13.0,29,0.00,,CLR,0.00,VWS V14.01,2013-05-07 16:55:00,
2013-05-07 13:00:00,78.8,44.8,30.09,East,90,7.2,13.0,30,0.00,,CLR,0.00,VWS V14.01,2013-05-07 17:00:00,
2013-05-07 13:05:00,77.7,44.7,30.09,ENE,68,7.6,8.7,31,0.00,,CLR,0.00,VWS V14.01,2013-05-07 17:05:00,
2013-05-07 13:10:00,76.3,43.5,30.09,ESE,112,7.6,10.1,31,0.00,,CLR,0.00,VWS V14.01,2013-05-07 17:10:00,
2013-05-07 13:15:00,77.0,43.2,30.09,East,90,2.9,10.1,30,0.00,,CLR,0.00,VWS V14.01,2013-05-07 17:15:00,
2013-05-07 13:20:00,77.7,44.7,30.09,East,90,6.0,10.1,31,0.00,,CLR,0.00,VWS V14.01,2013-05-07 17:20:00,
2013-05-07 13:25:00,77.0,43.2,30.09,ESE,112,7.6,14.3,30,0.00,,CLR,0.00,VWS V14.01,2013-05-07 17:25:00,
2013-05-07 13:30:00,77.9,44.0,30.09,ESE,112,5.6,14.3,30,0.00,,CLR,0.00,VWS V14.01,2013-05-07 17:30:00,
2013-05-07 13:35:00,77.4,42.7,30.06,East,90,6.0,14.3,29,0.00,,CLR,0.00,VWS V14.01,2013-05-07 17:35:00,
2013-05-07 13:40:00,76.1,43.3,30.06,ESE,112,7.4,14.3,31,0.00,,CLR,0.00,VWS V14.01,2013-05-07 17:40:00,
2013-05-07 13:45:00,76.1,43.3,30.06,ESE,112,6.3,14.3,31,0.00,,CLR,0.00,VWS V14.01,2013-05-07 17:45:00,
2013-05-07 13:50:00,79.2,46.0,30.09,East,90,5.4,14.3,31,0.00,,CLR,0.00,VWS V14.01,2013-05-07 17:50:00,
2013-05-07 13:55:00,77.9,44.0,30.09,ENE,68,7.6,14.3,30,0.00,,CLR,0.00,VWS V14.01,2013-05-07 17:55:00,
2013-05-07 14:00:00,75.7,42.1,30.09,ESE,112,6.3,14.3,30,0.00,,CLR,0.00,VWS V14.01,2013-05-07 18:00:00,
2013-05-07 14:05:00,78.1,40.4,30.06,East,90,5.6,10.5,26,0.00,,CLR,0.00,VWS V14.01,2013-05-07 18:05:00,
2013-05-07 14:10:00,79.2,40.3,30.06,SE,135,9.6,10.5,25,0.00,,CLR,0.00,VWS V14.01,2013-05-07 18:10:00,
2013-05-07 14:15:00,80.4,42.4,30.06,ESE,112,10.5,10.5,26,0.00,,CLR,0.00,VWS V14.01,2013-05-07 18:15:00,
2013-05-07 14:20:00,80.6,40.5,30.06,East,90,4.3,10.5,24,0.00,,CLR,0.00,VWS V14.01,2013-05-07 18:20:00,
2013-05-07 14:25:00,79.9,38.8,30.06,ESE,112,5.4,10.5,23,0.00,,CLR,0.00,VWS V14.01,2013-05-07 18:25:00,
2013-05-07 14:30:00,79.3,38.4,30.06,ESE,112,5.8,10.7,23,0.00,,CLR,0.00,VWS V14.01,2013-05-07 18:30:00,
2013-05-07 14:35:00,81.0,40.8,30.06,SSE,158,7.8,10.7,24,0.00,,CLR,0.00,VWS V14.01,2013-05-07 18:35:00,
2013-05-07 14:40:00,80.4,39.3,30.06,East,90,10.7,12.1,23,0.00,,CLR,0.00,VWS V14.01,2013-05-07 18:40:00,
2013-05-07 14:45:00,79.3,38.4,30.06,ESE,112,4.0,12.1,23,0.00,,CLR,0.00,VWS V14.01,2013-05-07 18:45:00,
2013-05-07 14:50:00,79.5,39.6,30.06,ESE,112,10.5,12.1,24,0.00,,CLR,0.00,VWS V14.01,2013-05-07 18:50:00,
2013-05-07 14:55:00,79.5,38.5,30.06,SSE,158,9.8,12.1,23,0.00,,CLR,0.00,VWS V14.01,2013-05-07 18:55:00,
2013-05-07 15:00:00,80.6,39.4,30.06,SE,135,6.3,12.1,23,0.00,,CLR,0.00,VWS V14.01,2013-05-07 19:00:00,
2013-05-07 15:05:00,79.9,37.7,30.06,SE,135,11.4,13.4,22,0.00,,CLR,0.00,VWS V14.01,2013-05-07 19:05:00,
2013-05-07 15:10:00,79.7,38.7,30.06,SSE,158,6.7,13.4,23,0.00,,CLR,0.00,VWS V14.01,2013-05-07 19:10:00,
2013-05-07 15:15:00,81.1,38.7,30.06,South,180,10.3,13.4,22,0.00,,CLR,0.00,VWS V14.01,2013-05-07 19:15:00,
2013-05-07 15:20:00,81.1,38.7,30.03,SE,135,9.8,13.4,22,0.00,,CLR,0.00,VWS V14.01,2013-05-07 19:20:00,
2013-05-07 15:25:00,81.1,38.7,30.03,ESE,112,5.6,13.4,22,0.00,,CLR,0.00,VWS V14.01,2013-05-07 19:25:00,
2013-05-07 15:30:00,81.3,38.9,30.03,East,90,4.9,13.4,22,0.00,,CLR,0.00,VWS V14.01,2013-05-07 19:30:00,
2013-05-07 15:35:00,82.9,40.2,30.03,ENE,68,9.8,13.4,22,0.00,,CLR,0.00,VWS V14.01,2013-05-07 19:35:00,
2013-05-07 15:40:00,79.7,37.5,30.03,ENE,68,4.0,13.4,22,0.00,,CLR,0.00,VWS V14.01,2013-05-07 19:40:00,
2013-05-07 15:45:00,77.4,38.8,30.03,ENE,68,5.6,13.4,25,0.00,,CLR,0.00,VWS V14.01,2013-05-07 19:45:00,
2013-05-07 15:50:00,80.1,40.1,30.03,ENE,68,4.9,13.4,24,0.00,,CLR,0.00,VWS V14.01,2013-05-07 19:50:00,
2013-05-07 15:55:00,79.9,38.8,30.03,ESE,112,12.5,13.4,23,0.00,,CLR,0.00,VWS V14.01,2013-05-07 19:55:00,
2013-05-07 16:00:00,78.4,40.8,30.03,SSE,158,7.6,13.4,26,0.00,,CLR,0.00,VWS V14.01,2013-05-07 20:00:00,
2013-05-07 16:05:00,79.7,40.8,30.03,East,90,5.8,5.8,25,0.00,,CLR,0.00,VWS V14.01,2013-05-07 20:05:00,
2013-05-07 16:10:00,80.6,39.4,30.03,East,90,10.5,10.7,23,0.00,,CLR,0.00,VWS V14.01,2013-05-07 20:10:00,
2013-05-07 16:15:00,81.5,40.2,30.03,ESE,112,3.8,10.7,23,0.00,,CLR,0.00,VWS V14.01,2013-05-07 20:15:00,
2013-05-07 16:20:00,82.9,39.0,30.03,East,90,5.6,10.7,21,0.00,,CLR,0.00,VWS V14.01,2013-05-07 20:20:00,
2013-05-07 16:25:00,84.2,40.1,30.03,ENE,68,5.8,10.7,21,0.00,,CLR,0.00,VWS V14.01,2013-05-07 20:25:00,
2013-05-07 16:31:00,81.1,38.7,30.03,East,90,6.3,10.7,22,0.00,,CLR,0.00,VWS V14.01,2013-05-07 20:31:00,
2013-05-07 16:36:00,77.9,37.2,30.03,East,90,6.3,10.7,23,0.00,,CLR,0.00,VWS V14.01,2013-05-07 20:36:00,
2013-05-07 16:41:00,76.5,38.1,30.03,ENE,68,3.8,10.7,25,0.00,,CLR,0.00,VWS V14.01,2013-05-07 20:41:00,
2013-05-07 16:46:00,75.9,38.6,30.03,ESE,112,6.5,10.7,26,0.00,,CLR,0.00,VWS V14.01,2013-05-07 20:46:00,
2013-05-07 16:51:00,75.6,42.0,30.03,ESE,112,5.8,10.7,30,0.00,,CLR,0.00,VWS V14.01,2013-05-07 20:51:00,
2013-05-07 16:56:00,75.2,41.7,30.03,East,90,5.8,10.7,30,0.00,,CLR,0.00,VWS V14.01,2013-05-07 20:56:00,
2013-05-07 17:00:00,74.5,41.9,30.03,ESE,112,6.3,10.7,31,0.00,,CLR,0.00,VWS V14.01,2013-05-07 21:00:00,
2013-05-07 17:01:00,74.7,42.0,30.03,East,90,7.6,10.7,31,0.00,,CLR,0.00,VWS V14.01,2013-05-07 21:01:00,
2013-05-07 17:06:00,74.3,41.7,30.03,SSE,158,5.4,6.3,31,0.00,,CLR,0.00,VWS V14.01,2013-05-07 21:06:00,
2013-05-07 17:11:00,74.3,41.7,30.03,ESE,112,4.0,7.6,31,0.00,,CLR,0.00,VWS V14.01,2013-05-07 21:11:00,
2013-05-07 17:16:00,73.9,41.4,30.03,East,90,4.3,7.6,31,0.00,,CLR,0.00,VWS V14.01,2013-05-07 21:16:00,
2013-05-07 17:21:00,73.9,41.4,30.03,SE,135,4.9,7.6,31,0.00,,CLR,0.00,VWS V14.01,2013-05-07 21:21:00,
2013-05-07 17:26:00,73.8,41.3,30.03,SSE,158,3.1,7.6,31,0.00,,CLR,0.00,VWS V14.01,2013-05-07 21:26:00,
2013-05-07 17:31:00,73.4,41.0,30.03,ESE,112,4.3,7.6,31,0.00,,CLR,0.00,VWS V14.01,2013-05-07 21:31:00,
2013-05-07 17:36:00,73.2,40.8,30.03,ESE,112,2.9,7.6,31,0.00,,CLR,0.00,VWS V14.01,2013-05-07 21:36:00,
2013-05-07 17:41:00,73.0,40.6,30.03,ESE,112,2.9,7.6,31,0.00,,CLR,0.00,VWS V14.01,2013-05-07 21:41:00,
2013-05-07 17:46:00,72.7,41.2,30.03,ENE,68,2.5,7.6,32,0.00,,CLR,0.00,VWS V14.01,2013-05-07 21:46:00,
2013-05-07 17:51:00,72.9,41.3,30.03,ENE,68,2.5,7.6,32,0.00,,CLR,0.00,VWS V14.01,2013-05-07 21:51:00,
2013-05-07 17:56:00,72.7,40.3,30.03,ENE,68,2.5,7.6,31,0.00,,CLR,0.00,VWS V14.01,2013-05-07 21:56:00,
2013-05-07 18:00:00,76.1,40.7,30.03,ENE,68,4.3,7.6,28,0.00,,CLR,0.00,VWS V14.01,2013-05-07 22:00:00,
2013-05-07 18:01:00,75.6,41.1,30.03,ENE,68,4.3,7.6,29,0.00,,CLR,0.00,VWS V14.01,2013-05-07 22:01:00,
2013-05-07 18:06:00,76.8,39.4,30.03,ENE,68,4.3,4.3,26,0.00,,CLR,0.00,VWS V14.01,2013-05-07 22:06:00,
2013-05-07 18:11:00,78.1,38.4,30.03,ENE,68,4.3,4.3,24,0.00,,CLR,0.00,VWS V14.01,2013-05-07 22:11:00,
2013-05-07 18:16:00,79.0,41.2,30.03,ENE,68,4.3,4.3,26,0.00,,CLR,0.00,VWS V14.01,2013-05-07 22:16:00,
2013-05-07 18:21:00,78.8,40.0,30.03,ENE,68,4.3,4.3,25,0.00,,CLR,0.00,VWS V14.01,2013-05-07 22:21:00,
2013-05-07 18:26:00,78.6,38.8,30.03,ENE,68,4.3,4.3,24,0.00,,CLR,0.00,VWS V14.01,2013-05-07 22:26:00,
2013-05-07 18:31:00,78.8,37.9,30.03,ENE,68,4.3,4.3,23,0.00,,CLR,0.00,VWS V14.01,2013-05-07 22:31:00,
2013-05-07 18:36:00,79.5,37.4,30.03,ENE,68,4.3,4.3,22,0.00,,CLR,0.00,VWS V14.01,2013-05-07 22:36:00,
2013-05-07 18:41:00,80.1,37.8,30.03,ENE,68,4.3,4.3,22,0.00,,CLR,0.00,VWS V14.01,2013-05-07 22:41:00,
2013-05-07 18:46:00,80.8,38.4,30.03,ENE,68,4.3,4.3,22,0.00,,CLR,0.00,VWS V14.01,2013-05-07 22:46:00,
2013-05-07 18:51:00,80.1,39.0,30.03,ENE,68,4.3,4.3,23,0.00,,CLR,0.00,VWS V14.01,2013-05-07 22:51:00,
2013-05-07 18:56:00,77.5,41.9,30.03,ENE,68,8.5,8.5,28,0.00,,CLR,0.00,VWS V14.01,2013-05-07 22:56:00,
2013-05-07 19:00:00,75.7,43.0,30.03,NE,45,7.6,8.5,31,0.00,,CLR,0.00,VWS V14.01,2013-05-07 23:00:00,
2013-05-07 19:01:00,75.7,43.0,30.03,NE,45,7.6,8.5,31,0.00,,CLR,0.00,VWS V14.01,2013-05-07 23:01:00,
2013-05-07 19:06:00,74.3,42.6,30.03,ENE,68,7.4,7.6,32,0.00,,CLR,0.00,VWS V14.01,2013-05-07 23:06:00,
2013-05-07 19:11:00,73.4,42.6,30.03,ENE,68,7.4,7.6,33,0.00,,CLR,0.00,VWS V14.01,2013-05-07 23:11:00,
2013-05-07 19:16:00,72.3,42.4,30.03,ENE,68,7.4,7.6,34,0.00,,CLR,0.00,VWS V14.01,2013-05-07 23:16:00,
2013-05-07 19:21:00,71.4,43.8,30.03,ENE,68,7.4,7.6,37,0.00,,CLR,0.00,VWS V14.01,2013-05-07 23:21:00,
2013-05-07 19:26:00,70.9,44.0,30.03,ENE,68,7.4,7.6,38,0.00,,CLR,0.00,VWS V14.01,2013-05-07 23:26:00,
2013-05-07 19:31:00,70.3,44.2,30.03,ENE,68,7.4,7.6,39,0.00,,CLR,0.00,VWS V14.01,2013-05-07 23:31:00,
2013-05-07 19:36:00,70.0,45.2,30.03,ENE,68,7.4,7.6,41,0.00,,CLR,0.00,VWS V14.01,2013-05-07 23:36:00,
2013-05-07 19:41:00,69.4,45.4,30.03,ENE,68,7.4,7.6,42,0.00,,CLR,0.00,VWS V14.01,2013-05-07 23:41:00,
2013-05-07 19:46:00,69.3,45.8,30.03,ENE,68,7.4,7.6,43,0.00,,CLR,0.00,VWS V14.01,2013-05-07 23:46:00,
2013-05-07 19:51:00,68.9,45.5,30.03,ENE,68,7.4,7.6,43,0.00,,CLR,0.00,VWS V14.01,2013-05-07 23:51:00,
2013-05-07 19:56:00,68.9,46.1,30.03,ENE,68,7.4,7.6,44,0.00,,CLR,0.00,VWS V14.01,2013-05-07 23:56:00,
2013-05-07 20:00:00,68.9,45.5,30.03,ENE,68,7.4,7.6,43,0.00,,CLR,0.00,VWS V14.01,2013-05-08 00:00:00,
2013-05-07 20:02:00,68.9,45.5,30.03,ENE,68,7.4,7.6,43,0.00,,CLR,0.00,VWS V14.01,2013-05-08 00:02:00,
2013-05-07 20:07:00,68.7,44.7,30.03,ENE,68,7.4,7.4,42,0.00,,CLR,0.00,VWS V14.01,2013-05-08 00:07:00,
2013-05-07 20:12:00,68.2,44.9,30.03,ENE,68,7.4,7.4,43,0.00,,CLR,0.00,VWS V14.01,2013-05-08 00:12:00,
2013-05-07 20:17:00,67.8,44.5,30.03,ENE,68,7.4,7.4,43,0.00,,CLR,0.00,VWS V14.01,2013-05-08 00:17:00,
2013-05-07 20:22:00,67.5,44.2,30.03,ENE,68,7.4,7.4,43,0.00,,CLR,0.00,VWS V14.01,2013-05-08 00:22:00,
2013-05-07 20:27:00,66.9,43.7,30.03,ENE,68,7.4,7.4,43,0.00,,CLR,0.00,VWS V14.01,2013-05-08 00:27:00,
2013-05-07 20:32:00,66.4,43.2,30.03,ENE,68,7.4,7.4,43,0.00,,CLR,0.00,VWS V14.01,2013-05-08 00:32:00,
2013-05-07 20:37:00,66.0,43.5,30.03,ENE,68,7.4,7.4,44,0.00,,CLR,0.00,VWS V14.01,2013-05-08 00:37:00,
2013-05-07 20:42:00,65.3,44.0,30.03,ENE,68,7.4,7.4,46,0.00,,CLR,0.00,VWS V14.01,2013-05-08 00:42:00,
2013-05-07 20:47:00,65.1,45.5,30.03,ENE,68,7.4,7.4,49,0.00,,CLR,0.00,VWS V14.01,2013-05-08 00:47:00,
2013-05-07 20:52:00,64.6,44.5,30.03,ENE,68,7.4,7.4,48,0.00,,CLR,0.00,VWS V14.01,2013-05-08 00:52:00,
2013-05-07 20:58:00,64.0,45.0,30.03,ENE,68,7.4,7.4,50,0.00,,CLR,0.00,VWS V14.01,2013-05-08 00:58:00,
2013-05-07 21:00:00,63.0,43.0,30.03,SW,225,0.0,7.4,48,0.00,,CLR,0.00,VWS V14.01,2013-05-08 01:00:00,
2013-05-07 21:03:00,63.0,43.0,30.03,SW,225,0.0,7.4,48,0.00,,CLR,0.00,VWS V14.01,2013-05-08 01:03:00,
2013-05-07 21:09:00,61.9,43.1,30.03,SW,225,0.0,0.0,50,0.00,,CLR,0.00,VWS V14.01,2013-05-08 01:09:00,
2013-05-07 21:14:00,61.3,43.1,30.03,SW,225,0.0,0.0,51,0.00,,CLR,0.00,VWS V14.01,2013-05-08 01:14:00,
2013-05-07 21:20:00,60.4,43.2,30.03,SW,225,0.0,0.0,53,0.00,,CLR,0.00,VWS V14.01,2013-05-08 01:20:00,
2013-05-07 21:25:00,59.9,42.7,30.03,SW,225,0.0,0.0,53,0.00,,CLR,0.00,VWS V14.01,2013-05-08 01:25:00,
2013-05-07 21:30:00,59.5,42.9,30.03,SW,225,0.0,0.0,54,0.00,,CLR,0.00,VWS V14.01,2013-05-08 01:30:00,
2013-05-07 21:35:00,59.4,42.7,30.03,SW,225,0.0,0.0,54,0.00,,CLR,0.00,VWS V14.01,2013-05-08 01:35:00,
2013-05-07 21:40:00,59.4,42.7,30.03,SW,225,0.0,0.0,54,0.00,,CLR,0.00,VWS V14.01,2013-05-08 01:40:00,
2013-05-07 21:46:00,59.5,43.8,30.03,SW,225,0.0,0.0,56,0.00,,CLR,0.00,VWS V14.01,2013-05-08 01:46:00,
2013-05-07 21:52:00,59.0,43.3,30.00,SSE,158,0.0,0.0,56,0.00,,CLR,0.00,VWS V14.01,2013-05-08 01:52:00,
2013-05-07 21:57:00,58.5,44.2,30.00,SSE,158,0.0,0.0,59,0.00,,CLR,0.00,VWS V14.01,2013-05-08 01:57:00,
2013-05-07 22:00:00,58.5,45.5,30.03,SSE,158,0.0,0.0,62,0.00,,CLR,0.00,VWS V14.01,2013-05-08 02:00:00,
2013-05-07 22:02:00,58.5,45.1,30.03,SSE,158,0.0,0.0,61,0.00,,CLR,0.00,VWS V14.01,2013-05-08 02:02:00,
2013-05-07 22:07:00,58.5,45.5,30.03,SSE,158,0.0,0.0,62,0.00,,CLR,0.00,VWS V14.01,2013-05-08 02:07:00,
2013-05-07 22:12:00,58.3,45.3,30.03,SSE,158,0.0,0.0,62,0.00,,CLR,0.00,VWS V14.01,2013-05-08 02:12:00,
2013-05-07 22:17:00,59.0,46.8,30.03,SSE,158,0.0,0.0,64,0.00,,CLR,0.00,VWS V14.01,2013-05-08 02:17:00,
2013-05-07 22:22:00,59.0,48.9,30.03,SSE,158,0.0,0.0,69,0.00,,CLR,0.00,VWS V14.01,2013-05-08 02:22:00,
2013-05-07 22:27:00,59.7,49.2,30.03,SSE,158,0.0,0.0,68,0.00,,CLR,0.00,VWS V14.01,2013-05-08 02:27:00,
2013-05-07 22:32:00,60.8,49.4,30.03,ENE,68,3.8,3.8,66,0.00,,CLR,0.00,VWS V14.01,2013-05-08 02:32:00,
2013-05-07 22:37:00,62.1,48.9,30.03,East,90,4.0,4.0,62,0.00,,CLR,0.00,VWS V14.01,2013-05-08 02:37:00,
2013-05-07 22:42:00,62.6,47.6,30.03,East,90,4.0,4.0,58,0.00,,CLR,0.00,VWS V14.01,2013-05-08 02:42:00,
2013-05-07 22:47:00,62.6,46.7,30.03,East,90,4.0,4.0,56,0.00,,CLR,0.00,VWS V14.01,2013-05-08 02:47:00,
2013-05-07 22:52:00,62.6,46.2,30.03,East,90,4.0,4.0,55,0.00,,CLR,0.00,VWS V14.01,2013-05-08 02:52:00,
2013-05-07 22:57:00,62.4,46.1,30.03,East,90,4.0,4.0,55,0.00,,CLR,0.00,VWS V14.01,2013-05-08 02:57:00,
2013-05-07 23:00:00,62.1,46.2,30.03,East,90,4.0,4.0,56,0.00,,CLR,0.00,VWS V14.01,2013-05-08 03:00:00,
2013-05-07 23:02:00,62.1,46.2,30.03,East,90,4.0,4.0,56,0.00,,CLR,0.00,VWS V14.01,2013-05-08 03:02:00,
2013-05-07 23:07:00,61.7,45.9,30.03,East,90,4.0,4.0,56,0.00,,CLR,0.00,VWS V14.01,2013-05-08 03:07:00,
2013-05-07 23:12:00,61.5,45.7,30.03,East,90,4.0,4.0,56,0.00,,CLR,0.00,VWS V14.01,2013-05-08 03:12:00,
2013-05-07 23:17:00,61.2,45.8,30.06,East,90,4.0,4.0,57,0.00,,CLR,0.00,VWS V14.01,2013-05-08 03:17:00,
2013-05-07 23:22:00,61.0,45.7,30.06,East,90,4.0,4.0,57,0.00,,CLR,0.00,VWS V14.01,2013-05-08 03:22:00,
2013-05-07 23:27:00,61.3,46.5,30.06,East,90,4.0,4.0,58,0.00,,CLR,0.00,VWS V14.01,2013-05-08 03:27:00,
2013-05-07 23:32:00,61.3,46.5,30.06,East,90,4.0,4.0,58,0.00,,CLR,0.00,VWS V14.01,2013-05-08 03:32:00,
2013-05-07 23:37:00,61.0,45.7,30.06,East,90,4.0,4.0,57,0.00,,CLR,0.00,VWS V14.01,2013-05-08 03:37:00,
2013-05-07 23:42:00,60.6,45.3,30.06,East,90,4.0,4.0,57,0.00,,CLR,0.00,VWS V14.01,2013-05-08 03:42:00,
2013-05-07 23:47:00,60.1,44.8,30.03,East,90,4.0,4.0,57,0.00,,CLR,0.00,VWS V14.01,2013-05-08 03:47:00,
2013-05-07 23:52:00,59.4,44.1,30.03,East,90,4.0,4.0,57,0.00,,CLR,0.00,VWS V14.01,2013-05-08 03:52:00,
2013-05-07 23:57:00,59.2,44.4,30.03,East,90,4.0,4.0,58,0.00,,CLR,0.00,VWS V14.01,2013-05-08 03:57:00,